• In Hungary
  • List of Countries
  • For 7 days
  • Water Temperature
  • Satellite Maps
  • Weather Map
  • News
  • Weather Widgets
  • user-avatar
    Login

    Hourly Weather Samak

    Today, 15 October, Monday

    Time Temperature Precipitation Wind Pressure Humidity
    00:00 +9°C° 0 mm 1 mps 676 mmHg 59%
    01:00 +9°C° 0 mm 1 mps 676 mmHg 59%
    02:00 +9°C° 0 mm 1 mps 675 mmHg 60%
    03:00 +9°C° 0 mm 1 mps 675 mmHg 61%
    04:00 +8°C° 0 mm 2 mps 675 mmHg 62%
    05:00 +8°C° 0 mm 2 mps 675 mmHg 61%
    06:00 +9°C° 0 mm 2 mps 675 mmHg 61%
    07:00 +10°C° 0 mm 2 mps 676 mmHg 61%
    08:00 +11°C° 0 mm 4 mps 676 mmHg 55%
    09:00 +12°C° 0 mm 5 mps 676 mmHg 49%
    10:00 +13°C° 0 mm 6 mps 676 mmHg 43%
    11:00 +13°C° 0.1 mm 6 mps 676 mmHg 41%
    12:00 +13°C° 0.1 mm 6 mps 676 mmHg 38%
    13:00 +14°C° 0.1 mm 7 mps 676 mmHg 36%
    14:00 +13°C° 0 mm 6 mps 676 mmHg 37%
    15:00 +13°C° 0 mm 5 mps 676 mmHg 37%
    16:00 +12°C° 0 mm 5 mps 675 mmHg 38%
    17:00 +11°C° 0 mm 4 mps 676 mmHg 40%
    18:00 +11°C° 0 mm 3 mps 676 mmHg 41%
    19:00 +10°C° 0 mm 3 mps 676 mmHg 43%
    20:00 +9°C° 0.3 mm 3 mps 676 mmHg 50%
    21:00 +9°C° 0.3 mm 3 mps 677 mmHg 57%
    22:00 +8°C° 0.3 mm 3 mps 677 mmHg 65%
    23:00 +8°C° 0.5 mm 3 mps 677 mmHg 66%

    Tomorrow, 16 October, Tuesday

    Time Temperature Precipitation Wind Pressure Humidity
    00:00 +8°C° 0.5 mm 3 mps 677 mmHg 67%
    01:00 +6°C° 0.5 mm 4 mps 677 mmHg 68%
    02:00 +7°C° 0.5 mm 3 mps 677 mmHg 69%
    03:00 +7°C° 0.5 mm 3 mps 677 mmHg 70%
    04:00 +7°C° 0.5 mm 3 mps 677 mmHg 71%
    05:00 +7°C° 1 mm 3 mps 677 mmHg 75%
    06:00 +6°C° 1 mm 4 mps 677 mmHg 79%
    07:00 +5°C° 1 mm 4 mps 678 mmHg 83%
    08:00 +5°C° 1.5 mm 4 mps 678 mmHg 82%
    09:00 +5°C° 1.5 mm 4 mps 678 mmHg 82%
    10:00 +5°C° 1.5 mm 4 mps 678 mmHg 81%
    11:00 +5°C° 0.7 mm 4 mps 678 mmHg 77%
    12:00 +5°C° 0.7 mm 4 mps 678 mmHg 74%
    13:00 +5°C° 0.7 mm 3 mps 678 mmHg 71%
    14:00 +5°C° 0.2 mm 3 mps 679 mmHg 69%
    15:00 +5°C° 0.2 mm 3 mps 679 mmHg 68%
    16:00 +5°C° 0.2 mm 3 mps 679 mmHg 66%
    17:00 +4°C° 0 mm 3 mps 679 mmHg 67%
    18:00 +3°C° 0 mm 3 mps 679 mmHg 68%
    19:00 +2°C° 0 mm 3 mps 680 mmHg 68%
    20:00 +2°C° 0 mm 3 mps 680 mmHg 66%
    21:00 +1°C° 0 mm 3 mps 680 mmHg 63%
    22:00 0°C° 0 mm 3 mps 680 mmHg 61%
    23:00 0°C° 0 mm 3 mps 680 mmHg 59%

    Day after tomorrow, 17 October, Wednesday

    Time Temperature Precipitation Wind Pressure Humidity
    00:00 0°C° 0 mm 3 mps 680 mmHg 58%
    01:00 0°C° 0 mm 3 mps 680 mmHg 56%
    02:00 +1°C° 0 mm 2 mps 681 mmHg 54%
    03:00 +1°C° 0 mm 2 mps 681 mmHg 51%
    04:00 +1°C° 0 mm 2 mps 681 mmHg 49%
    05:00 +1°C° 0 mm 2 mps 681 mmHg 47%
    06:00 +2°C° 0 mm 2 mps 681 mmHg 46%
    07:00 +3°C° 0 mm 2 mps 682 mmHg 44%
    08:00 +4°C° 0 mm 2 mps 682 mmHg 44%
    09:00 +6°C° 0 mm 2 mps 682 mmHg 44%
    10:00 +7°C° 0 mm 2 mps 682 mmHg 44%
    11:00 +8°C° 0 mm 2 mps 682 mmHg 45%
    12:00 +8°C° 0 mm 2 mps 682 mmHg 46%
    13:00 +9°C° 0 mm 2 mps 681 mmHg 47%
    14:00 +9°C° 0 mm 2 mps 681 mmHg 48%
    15:00 +9°C° 0 mm 1 mps 680 mmHg 50%
    16:00 +9°C° 0 mm 1 mps 680 mmHg 52%
    17:00 +8°C° 0 mm 1 mps 680 mmHg 53%
    18:00 +6°C° 0 mm 2 mps 680 mmHg 55%
    19:00 +5°C° 0 mm 2 mps 680 mmHg 56%
    20:00 +5°C° 0 mm 2 mps 680 mmHg 55%
    21:00 +5°C° 0 mm 2 mps 679 mmHg 54%
    22:00 +5°C° 0 mm 2 mps 679 mmHg 53%
    23:00 +5°C° 0 mm 2 mps 679 mmHg 53%

    18 October, Thursday

    Time Temperature Precipitation Wind Pressure Humidity
    00:00 +5°C° 0 mm 2 mps 679 mmHg 52%
    01:00 +5°C° 0 mm 2 mps 678 mmHg 52%
    02:00 +5°C° 0 mm 2 mps 678 mmHg 52%
    03:00 +4°C° 0 mm 2 mps 678 mmHg 52%
    04:00 +4°C° 0 mm 2 mps 678 mmHg 52%
    05:00 +5°C° 0 mm 2 mps 678 mmHg 52%
    06:00 +6°C° 0 mm 2 mps 678 mmHg 52%
    07:00 +6°C° 0 mm 2 mps 678 mmHg 53%
    08:00 +8°C° 0 mm 2 mps 678 mmHg 52%
    09:00 +9°C° 0 mm 2 mps 678 mmHg 52%
    10:00 +12°C° 0 mm 2 mps 679 mmHg 52%
    11:00 +12°C° 0 mm 2 mps 678 mmHg 51%
    12:00 +13°C° 0 mm 2 mps 678 mmHg 50%
    13:00 +13°C° 0 mm 2 mps 677 mmHg 50%
    14:00 +13°C° 0 mm 2 mps 677 mmHg 50%
    15:00 +12°C° 0 mm 2 mps 677 mmHg 50%
    16:00 +12°C° 0 mm 1 mps 676 mmHg 51%
    17:00 +9°C° 0 mm 2 mps 676 mmHg 51%
    18:00 +8°C° 0 mm 2 mps 676 mmHg 52%
    19:00 +7°C° 0 mm 2 mps 676 mmHg 52%
    20:00 +7°C° 0 mm 2 mps 677 mmHg 52%
    21:00 +7°C° 0 mm 2 mps 677 mmHg 51%
    22:00 +7°C° 0 mm 2 mps 677 mmHg 51%
    23:00 +7°C° 0 mm 2 mps 677 mmHg 52%

    19 October, Friday

    Time Temperature Precipitation Wind Pressure Humidity
    00:00 +7°C° 0 mm 2 mps 677 mmHg 52%
    01:00 +7°C° 0 mm 2 mps 676 mmHg 53%
    02:00 +7°C° 0 mm 2 mps 677 mmHg 53%
    03:00 +7°C° 0 mm 2 mps 677 mmHg 54%
    04:00 +7°C° 0 mm 2 mps 677 mmHg 54%
    05:00 +7°C° 0 mm 2 mps 677 mmHg 54%
    06:00 +8°C° 0 mm 2 mps 678 mmHg 55%
    07:00 +8°C° 0 mm 2 mps 678 mmHg 55%
    08:00 +10°C° 0 mm 2 mps 678 mmHg 53%
    09:00 +11°C° 0 mm 3 mps 679 mmHg 51%
    10:00 +12°C° 0 mm 3 mps 679 mmHg 49%
    11:00 +12°C° 0 mm 3 mps 679 mmHg 49%
    12:00 +13°C° 0 mm 3 mps 679 mmHg 48%
    13:00 +13°C° 0 mm 3 mps 679 mmHg 47%
    14:00 +13°C° 0 mm 3 mps 679 mmHg 48%
    15:00 +13°C° 0 mm 2 mps 679 mmHg 48%
    16:00 +13°C° 0 mm 2 mps 679 mmHg 49%
    17:00 +12°C° 0 mm 2 mps 679 mmHg 51%
    18:00 +9°C° 0 mm 2 mps 679 mmHg 53%
    19:00 +8°C° 0 mm 2 mps 679 mmHg 55%
    20:00 +8°C° 0 mm 2 mps 679 mmHg 55%
    21:00 +8°C° 0 mm 2 mps 679 mmHg 54%
    22:00 +8°C° 0 mm 2 mps 679 mmHg 54%
    23:00 +7°C° 0 mm 2 mps 679 mmHg 53%

    20 October, Saturday

    Time Temperature Precipitation Wind Pressure Humidity
    00:00 +7°C° 0 mm 2 mps 679 mmHg 53%
    01:00 +7°C° 0 mm 2 mps 679 mmHg 52%
    02:00 +7°C° 0 mm 2 mps 679 mmHg 51%
    03:00 +7°C° 0 mm 2 mps 679 mmHg 50%
    04:00 +7°C° 0 mm 2 mps 679 mmHg 49%
    05:00 +7°C° 0 mm 2 mps 679 mmHg 48%
    06:00 +8°C° 0 mm 2 mps 679 mmHg 47%
    07:00 +8°C° 0 mm 2 mps 680 mmHg 46%
    08:00 +10°C° 0 mm 2 mps 680 mmHg 45%
    09:00 +12°C° 0 mm 1 mps 680 mmHg 43%
    10:00 +14°C° 0 mm 1 mps 681 mmHg 41%
    11:00 +14°C° 0 mm 1 mps 680 mmHg 41%
    12:00 +15°C° 0 mm 1 mps 680 mmHg 41%
    13:00 +15°C° 0 mm 1 mps 680 mmHg 41%
    14:00 +15°C° 0 mm 1 mps 680 mmHg 41%
    15:00 +14°C° 0 mm 1 mps 680 mmHg 41%
    16:00 +14°C° 0 mm 1 mps 679 mmHg 41%
    17:00 +13°C° 0 mm 1 mps 679 mmHg 43%
    18:00 +12°C° 0 mm 1 mps 679 mmHg 44%
    19:00 +10°C° 0 mm 2 mps 679 mmHg 45%
    20:00 +9°C° 0 mm 2 mps 679 mmHg 44%
    21:00 +9°C° 0 mm 2 mps 679 mmHg 44%
    22:00 +9°C° 0 mm 2 mps 679 mmHg 43%
    23:00 +9°C° 0 mm 2 mps 679 mmHg 43%
    Show more